Location: Unspecified
(40.7945°N, 111.1337°W)
Time: 17:30:17
(UTC-06:00)

Cosmos 1674 - Visible Passes

Search period start: 20 May 2018 00:00
Search period end: 30 May 2018 00:00
Orbit: 496 x 521 km, 82.5° (Epoch: 20 May)

Date Brightness Start Highest point End Pass type
(mag) Time Alt. Az. Time Alt. Az. Time Alt. Az.
20 May 5.1 02:08:45 17° ENE 02:08:45 17° ENE 02:10:24 10° NE visible
20 May 4.2 03:43:38 23° WNW 03:43:38 23° WNW 03:46:11 10° NNW visible
21 May 5.4 01:51:48 13° ENE 01:51:48 13° ENE 01:52:48 10° NE visible
21 May 4.0 03:26:40 28° NW 03:26:40 28° NW 03:29:16 10° NNW visible
22 May 5.6 01:34:49 10° ENE 01:34:49 10° ENE 01:34:52 10° ENE visible
22 May 3.9 03:09:41 33° NW 03:09:41 33° NW 03:12:17 10° N visible
23 May 3.8 02:52:41 38° NNW 02:52:41 38° NNW 02:55:15 10° N visible
24 May 3.9 02:35:41 39° N 02:35:41 39° N 02:38:10 10° N visible
25 May 4.0 02:18:40 37° NNE 02:18:40 37° NNE 02:21:03 10° N visible
26 May 4.2 02:01:38 33° NNE 02:01:38 33° NNE 02:03:53 10° NNE visible
27 May 4.5 01:44:36 28° NE 01:44:36 28° NE 01:46:39 10° NNE visible
27 May 5.3 03:19:27 10° WNW 03:19:27 10° WNW 03:19:49 10° NW visible
28 May 4.7 01:27:32 24° NE 01:27:32 24° NE 01:29:23 10° NNE visible
28 May 5.1 03:02:24 13° WNW 03:02:24 13° WNW 03:03:40 10° NW visible
29 May 4.9 01:10:28 20° NE 01:10:28 20° NE 01:12:03 10° NNE visible
29 May 4.9 02:45:20 16° NW 02:45:20 16° NW 02:47:02 10° NNW visible
